Flag for U.S.A. Weather past 2 weeks in Angels Camp, California, U.S.A.

Now
69 °F

Clear.


Feels Like: 69 °F
Forecast: 54 / 94 °F
Wind: 6 mph from Northwest

Location: Modesto City-County-Sham Field

Current Time: Aug 27, 2014 at 5:56:21 AM

Latest Report: Aug 27, 2014 at 4:53 AM


Visibility: 10 mi

Pressure: 29.97 "Hg

Humidity: 57%

Dew point: 53 °F

Location of Angels CampLocation

Historic Weather in Angels Camp — Graph

°F

Angels Camp temperature yesterday

Maximum temperature yesterday: 90 °F (at 4:53 PM)
Minimum temperature yesterday: 60 °F (at 5:53 AM)
Average temperature yesterday: 74 °F

Past Weeks' High & Low Weather Summary

 TemperatureHumidityPressure
High95 °F (Aug 15, 2:53 PM)87% (Aug 20, 5:53 AM)29.99 "Hg (Aug 20, 5:53 AM)
Low59 °F (Aug 13, 5:53 AM)14% (Aug 17, 2:53 PM)29.70 "Hg (Aug 18, 6:53 PM)
Average75 °F50%29.86 "Hg
* Reported Aug 12 3:53 AM — Aug 27 3:53 AM, Angels Camp, Weather by CustomWeather, © 2014

Note: Actual official high and low records may vary slightly from our data, if they occured in-between our weather recording intervals... More about our weather records

Advertising

Angels Camp weather history for previous 24 hours

 ConditionsComfort  
Time TempWeatherWind HumidityBarometerVisibility
3:53 AM
Aug 27
67 °FClear.No wind66%29.97 "Hg10 mi
2:53 AM70 °FClear.3 mph59%29.96 "Hg10 mi
1:53 AM70 °FClear.3 mph57%29.96 "Hg10 mi
12:53 AM71 °FClear.8 mph57%29.95 "Hg10 mi
11:53 PM
Aug 26
73 °FClear.7 mph55%29.94 "Hg10 mi
10:53 PM74 °FClear.8 mph53%29.93 "Hg10 mi
9:53 PM77 °FClear.8 mph48%29.92 "Hg10 mi
8:53 PM81 °FClear.8 mph39%29.90 "Hg10 mi
7:53 PM84 °FSunny.5 mph32%29.88 "Hg10 mi
6:53 PM88 °FSunny.6 mph29%29.86 "Hg10 mi
5:53 PM89 °FSunny.5 mph28%29.87 "Hg10 mi
4:53 PM90 °FSunny.7 mph27%29.87 "Hg10 mi
3:53 PM89 °FSunny.7 mph28%29.88 "Hg10 mi
2:53 PM87 °FSunny.3 mph30%29.90 "Hg10 mi
1:53 PM84 °FSunny.3 mph33%29.93 "Hg10 mi
12:53 PM82 °FSunny.6 mph35%29.95 "Hg10 mi
11:53 AM78 °FSunny.6 mph39%29.97 "Hg10 mi
10:53 AM73 °FSunny.3 mph48%29.98 "Hg10 mi
9:53 AM70 °FSunny.6 mph55%29.98 "Hg10 mi
8:53 AM66 °FSunny.7 mph65%29.98 "Hg10 mi
7:53 AM63 °FSunny.8 mph73%29.97 "Hg10 mi
6:53 AM60 °FClear.7 mph80%29.96 "Hg10 mi
5:53 AM60 °FClear.9 mph80%29.94 "Hg10 mi
Weather by CustomWeather, © 2014

See weather overviewHow to use our weather pages